Regional Weather Roundup
Issued by NWS Portland, ME

Current Version | Previous Version | Text Only | Print | Product List | Glossary Off
Versions: 1 2 3 4 5 6 7 8 9 10 11 12 13 14 15 16 17 18 19 20 21 22 23 24 25 26 27 28 29 30 31 32 33 34 35 36 37 38 39 40 41 42 43 44 45 46 47 48 49 50
000 ASUS41 KGYX 231110 RWRGYX WEATHER ROUNDUP FOR MAINE AND NEW HAMPSHIRE NATIONAL WEATHER SERVICE GRAY ME 700 AM EDT SUN APR 23 2017 MEZ002-005-006-010-012-015-018-020-021-024-026-027-029-231200- MAINE CITY SKY/WX TMP DP RH WIND PRES REMARKS PORTLAND SUNNY 38 36 92 NW7 30.02R SANFORD SUNNY 37 37 100 CALM 30.03R BAR HARBOR CLOUDY 37 36 96 CALM 30.01R WISCASSET CLOUDY 39 38 96 CALM 30.02R FOG ROCKLAND CLOUDY 38 37 97 CALM 30.00R FRYEBURG SUNNY 32 31 96 CALM 30.02R LEWISTONAUBURN SUNNY 41 36 82 NW8 30.01R AUGUSTA FOG 35 33 92 NW3 30.00R VSB 1/4 WATERVILLE FOG 36 35 96 CALM 29.98R VSB 1/2 BANGOR PTSUNNY 37 36 96 CALM 30.00R GREENVILLE N/A 35 35 100 NW8 29.94R MILLINOCKET CLOUDY 34 34 100 CALM 30.00R HOULTON CLOUDY 34 34 100 N5 29.97R PRESQUE ISLE CLOUDY 34 33 96 NW3 29.99R FRENCHVILLE CLOUDY 33 29 85 NW7 29.95R CARIBOU CLOUDY 34 32 92 NW5 29.97R $$ NHZ002-005-008-009-011-012-014-231200- NEW HAMPSHIRE CITY SKY/WX TMP DP RH WIND PRES REMARKS PORTSMOUTH FOG 37 37 100 CALM 30.03R VSB 1/2 ROCHESTER SUNNY 36 34 92 NW5 30.01R NASHUA SUNNY 40 37 89 NW8 30.05R MANCHESTER SUNNY 42 35 76 N5 30.03R CONCORD SUNNY 39 35 86 NW3 30.04R LACONIA SUNNY 43 33 68 W7 30.03R PLYMOUTH FAIR 42 34 74 CALM 30.03R BERLIN CLOUDY 40 33 76 CALM 30.02R WHITEFIELD CLOUDY 40 32 73 NW3 30.04R JAFFREY SUNNY 33 33 100 CALM 30.05R KEENE FOG 33 33 100 CALM 30.07R VSB<1/4 LEBANON FOG 34 34 100 CALM 30.06R VSB 1 MT WASHINGTON MOSUNNY 27 18 69 NW49 N/A WCI 7 $$ VTZ005-007-008-231200- VERMONT CITY SKY/WX TMP DP RH WIND PRES REMARKS ST JOHNSBURY N/A 36 36 100 MISG 30.05R MONTPELIER MOSUNNY 36 35 96 CALM 30.08R BURLINGTON MOSUNNY 38 36 92 CALM 30.08R $$ MAZ007-012-024-CTZ003-RIZ002-NYZ038-NYZ072-231200- SOUTHERN NEW ENGLAND AND NY CITY SKY/WX TMP DP RH WIND PRES REMARKS BOSTON MOSUNNY 43 37 79 NW10 30.04R WORCESTER SUNNY 40 32 73 NW8 30.03R NANTUCKET CLOUDY 45 39 79 N10 30.03R PROVIDENCE CLOUDY 43 38 82 NW6 30.06R HARTFORD MOSUNNY 43 37 79 CALM 30.08R ALBANY PTCLDY 37 32 82 CALM 30.10R NEW YORK CITY PTCLDY 48 36 63 N6 30.10R $$ ANZ081-ANZ082-ANZ150-NHZ014-MEZ023>029-231200- COASTAL MARINE OBSERVATIONS STATION/POSITION TIME TEMP WIND PRES WAVE AIR SEA DIR/SP/G HT/PER (UTC) (F) (DEG/KT/KT) (MB) (FT/S) MOUNT DESERT ROC 1100 38 1015.9R MATINICUS ROCK 1000 39 330/ 7/ 7 1014.8R ISLE OF SHOALS 1000 40 300/ 7/ 7 1015.9R JEFFREYS LEDGE 1006 43 N/A 5/ 8 CASHES LEDGE BUO 1050 41 42 1015.9R 5/11 GEORGES BANK BUO 1050 42 43 1012.6R 8/ 6 $$ .............KEY.............. WCI - WIND CHILL TC - TEMPERATURE IN CELSIUS VSB - VISIBILITY IN MILES HX - HEAT INDEX FAIR- INDICATES FEW OR NO CLOUDS BELOW 12,000 FT, WITH NO SIGNIFICANT WEATHER AND/OR OBSTRUCTIONS TO VISIBILITY.

USA.gov is the U.S. government's official web portal to all federal, state and local government web resources and services.